Overview Statistics Trail Chart Weather Telemetry Raw packets
 

This is the latest recevied weather packets stored in our database for station/object SV9TNF-51. If no packets are shown the sender has not sent any weather packets the latest 10 day(s).

<< 60 61 62 63 64 65 66 >>
Time Temp. Humidity Pressure Rain* Wind** Luminosity Snow
1788256093 33.89° C 39% 1011.5 hPa 0 mm 4.02 m/s, 172° - -
1788255793 33.89° C 40% 1011.5 hPa 0 mm 5.36 m/s, 303° - -
1788255493 33.33° C 40% 1011.5 hPa 0 mm 9.39 m/s, 24° - -
1788255219 33.33° C 39% 1011.5 hPa 0 mm 8.05 m/s, 137° - -
1788254893 33.33° C 40% 1011.5 hPa 0 mm 7.15 m/s, 320° - -
1788254593 32.78° C 40% 1011.9 hPa 0 mm 12.07 m/s, 359° - -
1788254293 33.33° C 41% 1011.9 hPa 0 mm 5.81 m/s, 141° - -
1788253992 33.33° C 39% 1011.9 hPa 0 mm 1.79 m/s, 127° - -
1788253693 32.78° C 40% 1011.9 hPa 0 mm 4.02 m/s, 0° - -
1788253393 33.33° C 39% 1011.9 hPa 0 mm 6.26 m/s, 359° - -
1788253092 33.33° C 39% 1011.5 hPa 0 mm 8.94 m/s, 302° - -
1788252792 32.78° C 40% 1011.5 hPa 0 mm 4.02 m/s, 327° - -
1788252492 33.33° C 41% 1011.9 hPa 0 mm 2.68 m/s, 342° - -
1788252192 31.67° C 42% 1011.9 hPa 0 mm 7.15 m/s, 52° - -
1788251892 32.78° C 41% 1011.9 hPa 0 mm 5.36 m/s, 16° - -
1788251592 31.67° C 43% 1011.9 hPa 0 mm 7.6 m/s, 275° - -
1788251291 32.22° C 42% 1011.9 hPa 0 mm 0.45 m/s, 126° - -
1788250991 32.22° C 40% 1011.9 hPa 0 mm 6.26 m/s, 52° - -
1788250691 31.67° C 42% 1011.9 hPa 0 mm 5.36 m/s, 24° - -
1788250391 32.78° C 41% 1011.9 hPa 0 mm 5.81 m/s, 7° - -
1788250091 32.22° C 44% 1011.9 hPa 0 mm 1.79 m/s, 346° - -
1788249791 31.67° C 43% 1011.9 hPa 0 mm 3.58 m/s, 121° - -
1788249491 31.67° C 42% 1011.9 hPa 0 mm 4.92 m/s, 164° - -
1788249191 31.67° C 43% 1011.9 hPa 0 mm 1.79 m/s, 103° - -
1788248891 32.22° C 43% 1011.9 hPa 0 mm 8.05 m/s, 353° - -

* Rain latest hour (hover to see other rain measurements)
** Current wind speed in m/s (hover to see current wind gust speed)